Weather History for Arctic Village, AK

Change the Weather History Date:

Wednesday, November 21, 2012

  Actual Average Record
Temperature  
Mean Temperature -14 °F -  
Max Temperature -11 °F -5 °F 19 °F (1987)
Min Temperature -18 °F -26 °F -52 °F (1992)
Degree Days  
Heating Degree Days 80    
Moisture  
Dew Point -25 °F    
Average Humidity 62    
Maximum Humidity 91    
Minimum Humidity 44    
Precipitation  
Precipitation 0.00 in - - ()
Sea Level Pressure  
Sea Level Pressure 30.03 in    
Wind  
Wind Speed 0 mph (NE)    
Max Wind Speed 6 mph    
Max Gust Speed -    
Visibility 10 miles    
Events      
Averages and records for this station are not official NWS values.
T = Trace of Precipitation, MM = Missing Value Source: NWS Daily Summary

Daily Weather History Graph

Daily Weather History Graph

Search for Another Location

Airport:

Trip Planner

Search our weather history database for the weather conditions in past years. The results will help you decide how hot, cold, wet, or windy it might be!

Date:

Astronomy

Nov. 21, 2012 Rise Set
Actual Time 10:30 AM AKST 2:25 PM AKST
Civil Twilight 8:59 AM AKST 3:56 PM AKST
Nautical Twilight 7:42 AM AKST 5:13 PM AKST
Astronomical Twilight 6:34 AM AKST 6:21 PM AKST
Moon 1:49 PM AKST (11/21) 12:39 AM AKST (11/21)
Length of Visible Light 6h 56m
Length of Day
3h 54m
Waxing Gibbous, 63% of the Moon is Illuminated
Nov 21
Waxing Gibbous
Nov 28
Full
Dec 6
Last Quarter
Dec 12
New
Dec 19
First Quarter

Hourly Weather History & Observations

Time (AKST) Temp. Windchill Dew Point Humidity Pressure Visibility Wind Dir Wind Speed Gust Speed Precip Events Conditions
12:16 AM -14.8 °F - -25.6 °F 58% 29.98 in 10.0 mi Calm Calm - N/A   Overcast
12:36 AM -14.8 °F - -18.4 °F 84% 29.98 in 10.0 mi Calm Calm - N/A   Overcast
12:56 AM -14.8 °F - -27.4 °F 53% 29.98 in 10.0 mi Calm Calm - N/A   Overcast
1:16 AM -14.8 °F - -18.4 °F 84% 29.97 in 10.0 mi Calm Calm - N/A   Overcast
1:36 AM -14.8 °F - -25.6 °F 58% 29.97 in 10.0 mi Calm Calm - N/A   Overcast
1:56 AM -14.8 °F - - N/A% 29.97 in 10.0 mi Calm Calm - N/A   Overcast
2:16 AM -16.6 °F - - N/A% 29.96 in 10.0 mi Calm Calm - N/A   Overcast
2:36 AM -14.8 °F - - N/A% 29.96 in 10.0 mi Calm Calm - N/A   Mostly Cloudy
2:56 AM -16.6 °F - - N/A% 29.96 in 10.0 mi Calm Calm - N/A   Clear
3:16 AM -16.6 °F - - N/A% 29.96 in 10.0 mi Calm Calm - N/A   Clear
3:36 AM -16.6 °F - - N/A% 29.96 in 10.0 mi Calm Calm - N/A   Clear
3:56 AM -18.4 °F - - N/A% 29.96 in 10.0 mi Calm Calm - N/A   Clear
4:16 AM -18.4 °F - - N/A% 29.96 in 10.0 mi Calm Calm - N/A   Clear
4:36 AM -18.4 °F - - N/A% 29.96 in 10.0 mi Calm Calm - N/A   Mostly Cloudy
4:56 AM -18.4 °F - - N/A% 29.96 in 10.0 mi Calm Calm - N/A   Overcast
5:16 AM -16.6 °F - -29.2 °F 53% 29.96 in 10.0 mi Calm Calm - N/A   Overcast
5:36 AM -18.4 °F - - N/A% 29.96 in 10.0 mi Calm Calm - N/A   Overcast
5:56 AM -16.6 °F - -22.0 °F 76% 29.96 in 10.0 mi Calm Calm - N/A   Overcast
6:16 AM -14.8 °F - -27.4 °F 53% 29.97 in 10.0 mi Calm Calm - N/A   Overcast
6:36 AM -18.4 °F - - N/A% 29.98 in 10.0 mi Calm Calm - N/A   Overcast
6:56 AM -16.6 °F - -25.6 °F 64% 29.98 in 10.0 mi Calm Calm - N/A   Overcast
7:16 AM -13.0 °F - - N/A% 29.98 in 10.0 mi Calm Calm - N/A   Overcast
7:36 AM -14.8 °F - - N/A% 29.98 in 10.0 mi Calm Calm - N/A   Overcast
7:56 AM -14.8 °F - - N/A% 29.98 in 8.0 mi Calm Calm - N/A   Overcast
8:16 AM -14.8 °F - - N/A% 29.99 in 7.0 mi Calm Calm - N/A   Overcast
8:36 AM -14.8 °F - - N/A% 29.99 in 10.0 mi Calm Calm - N/A   Overcast
8:56 AM -14.8 °F - - N/A% 29.99 in 10.0 mi Calm Calm - N/A   Overcast
9:16 AM -14.8 °F -24.8 °F - N/A% 29.99 in 10.0 mi NNE 3.5 mph - N/A   Mostly Cloudy
9:36 AM -14.8 °F - - N/A% 30.00 in 10.0 mi Calm Calm - N/A   Overcast
9:56 AM -14.8 °F -27.2 °F -29.2 °F 48% 30.00 in 10.0 mi NE 4.6 mph - N/A   Mostly Cloudy
10:16 AM -14.8 °F -24.8 °F -29.2 °F 48% 30.00 in 10.0 mi ENE 3.5 mph - N/A   Scattered Clouds
10:36 AM -14.8 °F -27.2 °F -27.4 °F 53% 30.00 in 10.0 mi NNE 4.6 mph - N/A   Partly Cloudy
10:56 AM -16.6 °F - - N/A% 30.01 in 10.0 mi Calm Calm - N/A   Clear
11:16 AM -16.6 °F -26.8 °F -23.8 °F 70% 30.01 in 10.0 mi NE 3.5 mph - N/A   Clear
11:36 AM -16.6 °F - -23.8 °F 70% 30.01 in 10.0 mi Calm Calm - N/A   Clear
11:56 AM -16.6 °F -29.3 °F - N/A% 30.02 in 10.0 mi NNE 4.6 mph - N/A   Clear
12:16 PM -18.4 °F -28.9 °F -20.2 °F 91% 30.02 in 10.0 mi NE 3.5 mph - N/A   Clear
12:36 PM -16.6 °F -26.8 °F - N/A% 30.02 in 10.0 mi NNE 3.5 mph - N/A   Clear
12:56 PM -18.4 °F - - N/A% 30.02 in 10.0 mi Calm Calm - N/A   Clear
1:16 PM -18.4 °F - -25.6 °F 70% 30.03 in 10.0 mi Calm Calm - N/A   Clear
1:36 PM -18.4 °F - - N/A% 30.03 in 10.0 mi Calm Calm - N/A   Clear
1:56 PM -18.4 °F - - N/A% 30.03 in 10.0 mi Calm Calm - N/A   Clear
2:16 PM -18.4 °F - -23.8 °F 76% 30.03 in 7.0 mi Calm Calm - N/A   Mostly Cloudy
2:36 PM -18.4 °F - - N/A% 30.04 in 10.0 mi Calm Calm - N/A   Mostly Cloudy
2:56 PM -18.4 °F - - N/A% 30.04 in 10.0 mi Calm Calm - N/A   Overcast
3:16 PM -18.4 °F - - N/A% 30.05 in 10.0 mi Calm Calm - N/A   Overcast
3:36 PM -16.6 °F - - N/A% 30.05 in 10.0 mi Calm Calm - N/A   Overcast
3:56 PM -14.8 °F - - N/A% 30.05 in 10.0 mi Calm Calm - N/A   Overcast
4:16 PM -14.8 °F - - N/A% 30.06 in 10.0 mi Calm Calm - N/A   Overcast
4:36 PM -14.8 °F - - N/A% 30.06 in 10.0 mi Calm Calm - N/A   Overcast
4:56 PM -14.8 °F - - N/A% 30.07 in 9.0 mi Calm Calm - N/A   Mostly Cloudy
5:16 PM -14.8 °F - -29.2 °F 48% 30.07 in 10.0 mi Calm Calm - N/A   Mostly Cloudy
5:36 PM -14.8 °F - -29.2 °F 48% 30.07 in 8.0 mi Calm Calm - N/A   Mostly Cloudy
5:56 PM -14.8 °F -29.1 °F -27.4 °F 53% 30.08 in 10.0 mi NNE 5.8 mph - N/A   Overcast
6:16 PM -16.6 °F -26.8 °F -27.4 °F 58% 30.08 in 10.0 mi NNE 3.5 mph - N/A   Overcast
6:36 PM -14.8 °F - -22.0 °F 70% 30.09 in 10.0 mi Calm Calm - N/A   Overcast
6:56 PM -16.6 °F -26.8 °F -25.6 °F 64% 30.10 in 10.0 mi NNE 3.5 mph - N/A   Overcast
7:16 PM -14.8 °F - -20.2 °F 77% 30.10 in 10.0 mi Calm Calm - N/A   Overcast
7:36 PM -14.8 °F - -25.6 °F 58% 30.10 in 8.0 mi Calm Calm - N/A   Overcast
7:56 PM -14.8 °F - - N/A% 30.11 in 10.0 mi Calm Calm - N/A   Overcast
8:16 PM -14.8 °F - - N/A% 30.11 in 10.0 mi Calm Calm - N/A   Overcast
8:36 PM -14.8 °F - - N/A% 30.12 in 10.0 mi Calm Calm - N/A   Overcast
8:56 PM -14.8 °F - - N/A% 30.12 in 10.0 mi Calm Calm - N/A   Overcast
9:16 PM -14.8 °F - - N/A% 30.13 in 10.0 mi Calm Calm - N/A   Overcast
9:36 PM -14.8 °F - - N/A% 30.13 in 10.0 mi Calm Calm - N/A   Overcast
9:56 PM -13.0 °F - - N/A% 30.13 in 10.0 mi Calm Calm - N/A   Overcast
10:16 PM -13.0 °F - -29.2 °F 44% 30.14 in 10.0 mi Calm Calm - N/A   Overcast
10:36 PM - - - N/A% 30.13 in 10.0 mi Calm Calm - N/A   Overcast
10:56 PM -11.2 °F - -25.6 °F 49% 30.15 in 10.0 mi Calm Calm - N/A   Overcast
11:16 PM -13.0 °F - -23.8 °F 59% 30.15 in 10.0 mi Calm Calm - N/A   Overcast
11:36 PM -11.2 °F - -20.2 °F 64% 30.15 in 10.0 mi Calm Calm - N/A   Overcast
11:56 PM -11.2 °F - -23.8 °F 54% 30.16 in 10.0 mi Calm Calm - N/A   Overcast